Regional Weather Roundup
Issued by NWS

Home | Current Version | Previous Version | Graphics & Text | Print | Product List | Glossary On
Versions: 1 2 3 4 5 6 7 8 9 10 11 12 13 14 15 16 17 18 19 20 21 22 23 24 25 26 27 28 29 30 31 32 33 34 35 36 37 38 39 40 41 42 43 44 45 46 47 48 49
000
ASUS45 KBOU 302307
RWRCO

WEATHER ROUNDUP FOR COLORADO
NATIONAL WEATHER SERVICE DENVER/BOULDER CO
500 PM MDT TUE SEP 30 2014

NOTE: "FAIR" INDICATES FEW OR NO CLOUDS BELOW 12000 FEET WITH NO
SIGNIFICANT WEATHER AND/OR OBSTRUCTIONS TO VISIBILITY.

COZ001>005-013-030-031-010000-
...NORTHWEST COLORADO...

CITY           SKY/WX    TMP DP  RH WIND       PRES   REMARKS
CRAIG          CLOUDY    50  43  77 SW7       29.96F
HAYDEN         CLOUDY    46  41  81 SW9       29.97F
MEEKER         CLOUDY    51  43  74 S6        29.97R
MOUNT WERNER   NOT AVBL
STEAMBOAT SPGS CLOUDY    43  39  86 W8        29.99R
WALDEN         PTSUNNY   43  34  70 SW16G24   29.95S
$$

COZ006>008-011-010000-
...WEST CENTRAL VALLEYS...

CITY           SKY/WX    TMP DP  RH WIND       PRES   REMARKS
GRAND JUNCTION MOSUNNY   63  45  51 N9        29.91F
MONTROSE       MOSUNNY   60  43  53 N13       29.97S
EAGLE          PTSUNNY   50  41  71 S14G22    29.99R
RIFLE          PTSUNNY   59  39  47 W18G24    29.92F
DELTA          MOSUNNY   65  43  45 S5        29.93F HAZE
NUCLA          MOSUNNY   63  41  45 N8        30.00S
$$

COZ017>023-064>068-010000-
...SOUTHWEST COLORADO...

CITY           SKY/WX    TMP DP  RH WIND       PRES   REMARKS
DURANGO        MOSUNNY   58  35  42 W13       30.00F
CORTEZ         SUNNY     64  37  36 NW10      29.98F
PAGOSA SPRINGS PTSUNNY   56  35  46 SW8       30.05F
TELLURIDE      MOSUNNY  N/A N/A N/A SW6       30.10S
WOLF CREEK PAS SNOW      32  32 100 SW17G25   30.19S VSB<1/4 WCI  21
$$

COZ009-010-012-014-032>034-037-058>063-010000-
...CENTRAL COLORADO...

CITY           SKY/WX    TMP DP  RH WIND       PRES   REMARKS
ASPEN          LGT RAIN  48  35  60 VRB5      30.02S
BUENA VISTA    CLOUDY    53  27  36 NW5       30.00F
COPPER MTN     CLOUDY    34  27  75 SW9       30.14S WCI  26
BERTHOUD PASS  CLOUDY    27  23  86 W22G29    30.13R WCI  12
COTTONWOOD PAS PTSUNNY   45  28  53 W10G28    30.07S
GUNNISON       CLOUDY    52  34  50 W8        30.04S
KREMMLING      LGT RAIN  45  36  70 NW6       30.00R
LEADVILLE      CLOUDY    40  27  59 N9        30.05F
MONARCH PASS   CLOUDY    30  30 100 MISG      30.24R FOG
SALIDA         CLOUDY    55  32  41 SW9       30.07S
SUNLIGHT       FOG       36  36 100 CALM      30.11F VSB 1/2
WILKERSON PASS NOT AVBL
$$

COZ069>075-010000-
...SAN LUIS VALLEY/SANGRE DE CRISTO MOUNTAINS...

CITY           SKY/WX    TMP DP  RH WIND       PRES   REMARKS
ALAMOSA        PTSUNNY   59  30  33 VRB3      29.98S
LA VETA PASS   SUNNY     45  28  53 S7        30.09S
SAGUACHE       CLOUDY    55  32  41 NW17G28   30.01R
$$

COZ035-036-038>040-010000-
...NORTHERN COLORADO FRONT RANGE...

CITY           SKY/WX    TMP DP  RH WIND       PRES   REMARKS
DENVER INTL AP CLOUDY    64  32  30 NW9       29.82S
DMNS CITY PARK   N/A     65  29  26 SW7G16    29.82R
AURORA         PTSUNNY   63  31  29 NE2       29.84S
FRONT RANGE AP NOT AVBL
ERIE MUNI ARPT CLOUDY    64  32  30 W7        29.81S
BOULDER MUN AP CLOUDY    63  32  31 W14G24    29.80S
CENTENNIAL     CLOUDY    62  32  32 SE3       29.84S
BROOMFIELD     NOT AVBL
FORT COLLINS   CLOUDY    63  37  39 CALM      29.81S
LONGMONT       CLOUDY    65  33  30 CALM      29.82R
$$

COZ041-046-047-076>085-087-088-010000-
...PIKES PEAK/PALMER DIVIDE AND SOUTHERN FOOTHILLS...

CITY           SKY/WX    TMP DP  RH WIND       PRES   REMARKS
COLO. SPRINGS  PTSUNNY   67  28  23 CALM      29.86R
A. F. ACADEMY  PTSUNNY   64  26  24 NW17      29.87R
ELLICOTT       NOT AVBL
FALCON         CLOUDY    62  28  27 NW3       29.91R
FORT CARSON    PTSUNNY   67  31  26 E3        29.83R
LIMON          CLOUDY    64  33  31 N10       29.83R
MONUMENT HILL  CLOUDY    55  32  41 N7        29.91R
TRINIDAD       SUNNY     72  29  20 E6        29.83F
$$

COZ042>045-048>051-090-091-010000-
...NORTHEAST COLORADO...

CITY           SKY/WX    TMP DP  RH WIND       PRES   REMARKS
GREELEY ARPT   PTSUNNY   66  36  32 SW9       29.80S
AKRON          MOSUNNY   66  34  30 W6        29.80S
BURLINGTON     SUNNY     71  37  28 S6        29.77F
WRAY           MOSUNNY   74  38  27 SE6       29.75S
STERLING       MOSUNNY   73  41  31 S9        29.75S
HOLYOKE        SUNNY     73  43  33 W7        29.75S
FORT MORGAN    MOSUNNY   68  32  25 SW7       29.79S
$$

COZ086-089-092>099-010000-
...SOUTHEAST COLORADO...

CITY           SKY/WX    TMP DP  RH WIND       PRES   REMARKS
PUEBLO         MOSUNNY   74  29  19 NW18      29.78R
LA JUNTA       SUNNY     76  31  19 S6        29.76F
LAMAR          SUNNY     77  38  24 N3        29.74F
SPRINGFIELD      N/A     74  28  18 CALM      29.78F
$$



USA.gov is the U.S. government's official web portal to all federal, state and local government web resources and services.